{"data":{"norad_id":61610,"epoch":"2026-09-19T14:31:12.140832Z","epoch_age_seconds":95572,"freshness":"FRESH","line1":"1 61610U 24188S   26262.60500163  .00000264  00000+0  71872-3 0  9995","line2":"2 61610  87.8915  17.4697 0001324 134.7010 225.4226 13.10376401 87828","mean_motion":13.10376401,"eccentricity":0.0001324,"inclination_deg":87.8915,"raan_deg":17.4697,"arg_perigee_deg":134.701,"mean_anomaly_deg":225.4226,"bstar":0.00071872,"rev_number":8782,"period_min":109.89208893728,"perigee_km":1220.6970743828,"apogee_km":1222.7095120924,"semimajor_km":7599.8402932376,"source":"CELESTRAK","updated_at":"2026-09-20T09:00:44.801737Z"}}